Hourly Data Report for March 11, 2004

TORONTO CITY
ONTARIO

43°40'00.000" N
79°24'00.000" W
112.50 m
6158355
71508
XTO

Download Data

Hourly Data (March 2004)
Hourly Data Report for March 11, 2004
TIME
LST
Temp Definition
°C
Dew Point Definition
°C
Rel Hum Definition
%
Precip. Amount Definition
mm

Wind Dir Definition
10's deg

Wind Spd Definition
km/h
Visibility Definition
km
Stn Press Definition
kPa
Hmdx Definition


Wind Chill Definition


Weather Definition


00:00 1.7 -0.8 83   LegendMM LegendMM LegendMM 101.01     LegendNANA
01:00 1.6 -0.6 85   LegendMM LegendMM LegendMM 100.96     LegendNANA
02:00 1.4 -0.1 90   LegendMM LegendMM LegendMM 100.92     LegendNANA
03:00 1.4 -0.1 90   LegendMM LegendMM LegendMM 100.84     LegendNANA
04:00 1.4 -0.9 85   LegendMM LegendMM LegendMM 100.79     LegendNANA
05:00 0.9 -1.4 85   LegendMM LegendMM LegendMM 100.74     LegendNANA
06:00 0.9 -1.7 83   LegendMM LegendMM LegendMM 100.64     LegendNANA
07:00 1.7 -1.8 78   LegendMM LegendMM LegendMM 100.58     LegendNANA
08:00 2.0 -1.7 76   LegendMM LegendMM LegendMM 100.50     LegendNANA
09:00 2.5 -2.5 70   LegendMM LegendMM LegendMM 100.42     LegendNANA
10:00 4.1 -1.6 66   LegendMM LegendMM LegendMM 100.28     LegendNANA
11:00 4.6 -2.1 62   LegendMM LegendMM LegendMM 100.19     LegendNANA
12:00 5.2 -1.6 61   LegendMM LegendMM LegendMM 100.07     LegendNANA
13:00 5.9 -2.3 56   LegendMM LegendMM LegendMM 99.91     LegendNANA
14:00 6.3 -1.7 57   LegendMM LegendMM LegendMM 99.77     LegendNANA
15:00 6.0 -2.4 55   LegendMM LegendMM LegendMM 99.64     LegendNANA
16:00 5.6 -0.5 65   LegendMM LegendMM LegendMM 99.61     LegendNANA
17:00 3.1 1.6 90   LegendMM LegendMM LegendMM 99.64     LegendNANA
18:00 3.0 2.1 94   LegendMM LegendMM LegendMM 99.60     LegendNANA
19:00 3.3 2.1 92   LegendMM LegendMM LegendMM 99.58     LegendNANA
20:00 3.6 1.7 87   LegendMM LegendMM LegendMM 99.54     LegendNANA
21:00 3.4 1.9 90   LegendMM LegendMM LegendMM 99.47     LegendNANA
22:00 3.2 1.7 90   LegendMM LegendMM LegendMM 99.41     LegendNANA
23:00 2.0 -1.2 79   LegendMM LegendMM LegendMM 99.34     LegendNANA

Notes on Data Quality.

Legend

  • E = Estimated
  • M = Missing
  • NA = Not Available*
  • [empty] = Indicates an unobserved value
Date modified: